Showing default

OPS 6073 (DMSP 4A F2), 2669

Orbit data source: Space-Track

OPS 6073 (DMSP 4A F2), 2669 is a payload satellite owned by USAF SSD (US) in SSO that was launched on Wed, 08 Feb 1967 UTC via a THOR BURNER 2 launch vehicle from the Air Force Western Test Range (AFWTR). Payload-class satellites include a variety of spacecraft equipped with specific instruments for various scientific and technological missions. These include communications satellites like Starlink; space stations such as the ISS; scientific satellites like the Hubble; Earth observation satellites from companies like Planet Labs, Umbra, and HawkEye 360; GPS; miniature CubeSats for education and research; and military/defense satellites.

Loading next visibility...
Identifier
2669, 1967-010A
Orbit
SSO
Last TLE update
4 hours ago
Origin
Manufacturer
RCA/East Windsor
Mission
Non-operational Defense Weather
Bus & Motor
DMSP BLOCK 4A, Unknown motor
Mass
79 kg wet, 79 kg dry
Launch date (UTC)
1967-02-08 (58 years ago)
Launch vehicle
THOR BURNER 2
Launch site
Air Force Western Test Range (AFWTR)
Object type
Payload
Rocket body
Debris
Shape & HBR
Oct Cyl, 0.8 m
Radar Cross Section
0.655 m², Medium (>0.1 m² and < 1m²)

Expand to show TLE details & history

TLE from 4 hours ago
0 OPS 6073 (DMSP 4A F2)
1  2669U 67010A   25182.86655224  .00000100  00000-0  58998-4 0  9997
2  2669  99.0806 166.0474 0048175 314.1958  45.5268 14.28048728 34800
Epoch: 2025-07-01T20:47Z
TLE epoch observation values (Epoch: 2025-07-01T20:47:50.113Z)
Latitude
-0.00005°
Longitude
-66.06725°
Altitude
777.034 km
Speed
7.478 km/s
True Right ascension
11h 04m 11s
True Declination
0° 00' 00"
Sunlit
Object was in daylight at epoch
Visualization orbit readout
Latitude
-50.05239°
Longitude
103.18311°
Altitude
813.247 km
Speed
7.448 km/s
Apparent Right ascension
23h 40m 35s
Apparent Declination
-46° 45' 35"
Sunlit
Object is in full shadow
Visualization observer readout
Local Sidereal Time
12:55:23
Azimuth
122.951° SE
Elevation
-74.827°
Doppler factor
1
Orbital elements
Apogee altitude
829.985 km
Perigee altitude
760.868 km
Semi-major axis
7,173.564 km
Eccentricity
0.00482
Inclination
99.0806°
RAAN
166.0474°
Arg. of periapsis
314.1958°
True anomaly
Unknown
Mean anomaly
45.5268°
Eccentric anomaly
Unknown
Mean motion
3.57224 °/min
Orbital period
100.78 mins
BSTAR
0.000058998
Loading maneuver chart data...
Loading SW <> Apogee altitude chart data...
Loading historical data...
Loading historical data...
Loading historical data...
Loading historical data...
Loading historical data...
Loading historical data...
Loading historical data...
Other satellites on launch #10 in the year 1967 (1967-02-08 UTC)

OPS 6073 (DMSP 4A F2) Visibility forecast

Observer location: undefined°, undefined°

Span
Click to sort rows by Start time (UTC) header in descending order
Start Az.
Max El. time (UTC)
Max El. Az.
Max El.
End time (UTC)
End Az.
8 mins2025-07-02 10:50:30.163Z41.163° NE2025-07-02 10:54:30.163Z91.042° ESE23.422°2025-07-02 10:58:30.163Z146.118° SSE
8 mins2025-07-02 12:30:30.163Z353.506° N2025-07-02 12:34:30.163Z288.335° WNW32.762°2025-07-02 12:38:30.163Z227.705° WSW
8 mins2025-07-02 22:09:30.163Z129.423° SE2025-07-02 22:13:30.163Z60.108° ENE31.609°2025-07-02 22:17:30.163Z4.357° NNE
6 mins2025-07-02 23:50:30.163Z226.981° WSW2025-07-02 23:52:30.163Z258.121° W22.88°2025-07-02 23:56:30.163Z314.968° NW
|